Regional Weather Roundup
Issued by NWS Burlington, VT

Home | Current Version | Previous Version | Text Only | Print | Product List | Glossary On
Versions: 1 2 3 4 5 6 7 8 9 10 11 12 13 14 15 16 17 18 19 20 21 22 23 24 25 26 27 28 29 30 31 32 33 34 35 36 37 38 39 40 41 42 43 44 45 46 47 48 49 50
000
ASUS41 KBTV 221530
RWRBTV
VERMONT REGIONAL WEATHER ROUNDUP
NATIONAL WEATHER SERVICE BURLINGTON VT
1000 AM EST SUN JAN 22 2017

NOTE: "FAIR" INDICATES FEW OR NO CLOUDS BELOW 12,000 FEET WITH NO
SIGNIFICANT WEATHER AND/OR OBSTRUCTIONS TO VISIBILITY.

* THESE REPORTS ARE NOT UNDER NWS QUALITY CONTROL AND/OR DO NOT
  REPORT WEATHER SUCH AS PRECIPITATION AND FOG.

VTZ001>019-221600-
_____VERMONT_____


CITY           SKY/WX    TMP DP  RH WIND       PRES   REMARKS
BURLINGTON     FOG       34  33  96 NW7       29.82F VSB 3/4 WCI  28
MONTPELIER     CLOUDY    35  35 100 CALM      29.82F FOG
MORRISVILLE    CLOUDY    34  33  96 N7        29.82F WCI  28
ST. JOHNSBURY*   N/A     34  34 100 MISG      29.80S
LYNDONVILLE*   FOG       34  34  99 N5        29.81F VSB 1/2 WCI  30
MIDDLEBURY*    CLOUDY   N/A N/A N/A N6        29.79F FOG
RUTLAND*       FOG       37  37 100 N5        29.78  VSB 1/4
SPRINGFIELD    CLOUDY    35  33  92 S5        29.81S WCI  31
HIGHGATE*      CLOUDY    33  32  95 N7        29.84F WCI  27
NEWPORT*       CLOUDY    31  31 100 N6        29.83F FOG     WCI  25
BENNINGTON     CLOUDY    44  40  85 VRB5      29.73S
SUTTON*          N/A     34 N/A N/A MISG        N/A
ISLAND POND*     N/A     34 N/A N/A NW2         N/A
GALLUP MILLS*    N/A     37 N/A N/A MISG        N/A
UNION VILLAGE*   N/A     39 N/A N/A MISG        N/A
MT. MANSFIELD*   N/A     32 N/A N/A W10         N/A  WCI  24

_____LAKE CHAMPLAIN_____


CITY           SKY/WX    TMP DP  RH WIND       PRES   REMARKS
BURTON ISLAND*   N/A     34  32  93 N1          N/A
COLCHESTER RF*   N/A     34  34 100 N15         N/A  WCI  24
DIAMOND ISL*     N/A     36  34  93 N16         N/A  WCI  26

$$

NYZ007-026>031-035-052-083-087-221600-
_____NORTHERN NEW YORK_____


CITY           SKY/WX    TMP DP  RH WIND       PRES   REMARKS
PLATTSBURGH    CLOUDY    34  31  88 N9        29.84F WCI  27
SARANAC LAKE   CLOUDY    34  32  92 NE12      29.73S WCI  25
MASSENA        CLOUDY    34  31  88 NE14      29.84F WCI  25
OGDENSBURG*    CLOUDY    36  36 100 E13G20    29.81R WCI  27
POTSDAM*       CLOUDY    34  34 100 NE13G20   29.80R FOG     WCI  25
STARK FALLS*     N/A     39 N/A N/A N2          N/A
WATERTOWN      CLOUDY    39  39 100 NE13      29.75R FOG     WCI  31
FT DRUM        CLOUDY    38  37  96 NE5       29.74R
ALBANY         CLOUDY    41  38  89 N6        29.76S FOG
GLENS FALLS    CLOUDY    40  37  89 NE5       29.78F FOG

$$
NHZ002-005-011-221600-
_____NEW HAMPSHIRE_____


CITY           SKY/WX    TMP DP  RH WIND       PRES   REMARKS
LEBANON        CLOUDY    38  35  89 S5        29.80R
KEENE          CLOUDY    34  34 100 CALM      29.81S FOG
MT WASHINGTON  CLOUDY    30  28  93 NW37        N/A  WCI  14
PLYMOUTH       CLOUDY    38  35  89 CALM      29.80S
WHITEFIELD     CLOUDY    36  34  92 CALM      29.80S

$$

_____REGIONAL QUEBEC LOCATIONS_____


CITY           SKY/WX    TMP DP  RH WIND       PRES   REMARKS
MONTREAL       MOSUNNY   34  28  80 NE12      29.88S WCI  25
QUEBEC CITY    CLOUDY    30  25  80 E18G28    29.94R WCI  18
SHERBROOKE     CLOUDY    30  30 100 VRB2      29.85R

_____REGIONAL ONTARIO LOCATIONS_____


CITY           SKY/WX    TMP DP  RH WIND       PRES   REMARKS
OTTAWA         CLOUDY    32  30  93 E14G21    29.83S WCI  22

______KEY______
VSB  - VISIBILITY IN MILES
WCI  - WIND CHILL INDEX
HX   - HEAT INDEX
$$
NNNN




USA.gov is the U.S. government's official web portal to all federal, state and local government web resources and services.